Weather History for Wrangell, AK

Change the Weather History Date:

Sunday, February 17, 2013

  Actual Average Record
Temperature  
Mean Temperature 35 °F -  
Max Temperature 37 °F 37 °F 49 °F (1973)
Min Temperature 33 °F 27 °F 7 °F (1990)
Degree Days  
Heating Degree Days 30    
Moisture  
Dew Point 29 °F    
Average Humidity 76    
Maximum Humidity 87    
Minimum Humidity 65    
Precipitation  
Precipitation 0.03 in - - ()
Sea Level Pressure  
Sea Level Pressure 30.01 in    
Wind  
Wind Speed 9 mph (SE)    
Max Wind Speed 18 mph    
Max Gust Speed 26 mph    
Visibility 10 miles    
Events      
Averages and records for this station are not official NWS values.
T = Trace of Precipitation, MM = Missing Value Source: NWS Daily Summary

Daily Weather History Graph

Daily Weather History Graph

Search for Another Location

Airport:

Trip Planner

Search our weather history database for the weather conditions in past years. The results will help you decide how hot, cold, wet, or windy it might be!

Date:

Astronomy

Feb. 17, 2013 Rise Set
Actual Time 7:10 AM AKST 4:57 PM AKST
Civil Twilight 6:31 AM AKST 5:36 PM AKST
Nautical Twilight 5:47 AM AKST 6:20 PM AKST
Astronomical Twilight 5:04 AM AKST 7:04 PM AKST
Moon 9:37 AM AKST (2/17) 1:28 AM AKST (2/17)
Length of Visible Light 11h 05m
Length of Day
9h 47m
Waxing Crescent, 50% of the Moon is Illuminated
Feb 17
Waxing Crescent
Feb 25
Full
Mar 4
Last Quarter
Mar 11
New
Mar 19
First Quarter

Hourly Weather History & Observations

Time (AKST) Temp. Windchill Dew Point Humidity Pressure Visibility Wind Dir Wind Speed Gust Speed Precip Events Conditions
12:16 AM 33.8 °F 28.6 °F 30.2 °F 87% 30.21 in 10.0 mi SE 5.8 mph - N/A   Mostly Cloudy
12:36 AM 33.8 °F 29.6 °F 30.2 °F 87% 30.21 in 10.0 mi SE 4.6 mph - N/A   Overcast
12:56 AM 35.6 °F 32.8 °F 30.2 °F 81% 30.21 in 10.0 mi ESE 3.5 mph - N/A   Overcast
1:16 AM 35.6 °F 30.7 °F 30.2 °F 81% 30.21 in 10.0 mi ESE 5.8 mph - N/A   Overcast
1:36 AM 35.6 °F 32.8 °F 30.2 °F 81% 30.21 in 10.0 mi South 3.5 mph - N/A   Overcast
1:56 AM 35.6 °F 31.7 °F 30.2 °F 81% 30.21 in 10.0 mi ESE 4.6 mph - N/A   Overcast
2:16 AM 35.6 °F 31.7 °F 32.0 °F 87% 30.20 in 10.0 mi SE 4.6 mph - N/A   Overcast
2:36 AM 35.6 °F 29.9 °F 32.0 °F 87% 30.19 in 10.0 mi ESE 6.9 mph - N/A   Overcast
2:56 AM 35.6 °F 31.7 °F 32.0 °F 87% 30.18 in 10.0 mi SE 4.6 mph - N/A   Overcast
3:16 AM 35.6 °F 30.7 °F 32.0 °F 87% 30.18 in 10.0 mi ESE 5.8 mph - N/A   Overcast
3:36 AM 35.6 °F 31.7 °F 30.2 °F 81% 30.18 in 10.0 mi SSE 4.6 mph - N/A   Overcast
3:56 AM 35.6 °F 31.7 °F 32.0 °F 87% 30.18 in 10.0 mi SE 4.6 mph - N/A   Overcast
4:16 AM 35.6 °F - 32.0 °F 87% 30.17 in 10.0 mi Calm Calm - N/A   Overcast
4:36 AM 35.6 °F 31.7 °F 32.0 °F 87% 30.17 in 10.0 mi East 4.6 mph - N/A   Overcast
4:56 AM 35.6 °F 29.2 °F 32.0 °F 87% 30.16 in 10.0 mi ESE 8.1 mph - N/A   Overcast
5:16 AM 35.6 °F 29.9 °F 30.2 °F 81% 30.14 in 10.0 mi ESE 6.9 mph - N/A   Overcast
5:36 AM 35.6 °F 31.7 °F 30.2 °F 81% 30.14 in 10.0 mi SSE 4.6 mph - N/A   Scattered Clouds
5:56 AM 35.6 °F - 28.4 °F 75% 30.14 in 10.0 mi Calm Calm - N/A   Scattered Clouds
6:16 AM 35.6 °F - 28.4 °F 75% 30.14 in 10.0 mi Calm Calm - N/A   Scattered Clouds
6:36 AM 35.6 °F 31.7 °F 28.4 °F 75% 30.12 in 10.0 mi West 4.6 mph - N/A   Scattered Clouds
6:56 AM 35.6 °F - 30.2 °F 81% 30.12 in 10.0 mi Calm Calm - N/A   Overcast
7:16 AM 35.6 °F 32.8 °F 30.2 °F 81% 30.11 in 10.0 mi SSE 3.5 mph - N/A   Overcast
7:36 AM 33.8 °F - 28.4 °F 81% 30.10 in 10.0 mi Calm Calm - N/A   Overcast
7:56 AM 35.6 °F 29.2 °F 28.4 °F 75% 30.10 in 10.0 mi SE 8.1 mph - N/A   Overcast
8:16 AM 35.6 °F 28.6 °F 30.2 °F 81% 30.09 in 10.0 mi ESE 9.2 mph - N/A   Overcast
8:36 AM 35.6 °F 26.2 °F 30.2 °F 81% 30.07 in 10.0 mi East 15.0 mph - N/A   Overcast
8:56 AM 35.6 °F 27.1 °F 30.2 °F 81% 30.07 in 10.0 mi East 12.7 mph - N/A   Overcast
9:16 AM 35.6 °F 27.5 °F 30.2 °F 81% 30.07 in 10.0 mi East 11.5 mph - N/A   Overcast
9:36 AM 35.6 °F 27.5 °F 30.2 °F 81% 30.06 in 10.0 mi East 11.5 mph - N/A   Overcast
9:56 AM 37.4 °F 30.3 °F 26.6 °F 65% 30.06 in 10.0 mi SE 10.4 mph - N/A   Overcast
10:16 AM 37.4 °F 29.8 °F 26.6 °F 65% 30.05 in 10.0 mi SSE 11.5 mph - N/A   Overcast
10:36 AM 35.6 °F 26.6 °F 26.6 °F 70% 30.05 in 10.0 mi SE 13.8 mph 19.6 mph N/A   Overcast
10:56 AM 35.6 °F 26.6 °F 28.4 °F 75% 30.05 in 10.0 mi ESE 13.8 mph 19.6 mph N/A   Overcast
11:16 AM 35.6 °F 26.2 °F 28.4 °F 75% 30.04 in 10.0 mi ESE 15.0 mph - N/A   Overcast
11:36 AM 35.6 °F 27.1 °F 28.4 °F 75% 30.03 in 10.0 mi ESE 12.7 mph - N/A   Overcast
11:56 AM 35.6 °F 27.1 °F 30.2 °F 81% 30.02 in 10.0 mi ESE 12.7 mph - N/A   Overcast
12:16 PM 35.6 °F 27.5 °F 30.2 °F 81% 30.02 in 10.0 mi ESE 11.5 mph - N/A   Overcast
12:36 PM 35.6 °F 26.6 °F 30.2 °F 81% 30.00 in 10.0 mi ESE 13.8 mph 19.6 mph N/A   Overcast
12:56 PM 35.6 °F 26.6 °F 28.4 °F 75% 30.00 in 7.0 mi ESE 13.8 mph 20.7 mph N/A   Overcast
1:16 PM 35.6 °F 27.1 °F 28.4 °F 75% 29.99 in 7.0 mi ESE 12.7 mph - N/A   Overcast
1:36 PM 37.4 °F 29.3 °F 28.4 °F 70% 29.99 in 7.0 mi ESE 12.7 mph - N/A   Overcast
1:56 PM 37.4 °F 28.9 °F 30.2 °F 75% 29.98 in 7.0 mi ESE 13.8 mph 20.7 mph N/A   Overcast
2:16 PM 35.6 °F 26.2 °F 30.2 °F 81% 29.97 in 7.0 mi ESE 15.0 mph 20.7 mph N/A   Overcast
2:36 PM 37.4 °F 27.8 °F 28.4 °F 70% 29.96 in 7.0 mi SE 17.3 mph - N/A   Overcast
2:56 PM 37.4 °F 28.5 °F 28.4 °F 70% 29.95 in 7.0 mi ESE 15.0 mph - N/A   Overcast
3:16 PM 37.4 °F 30.3 °F 28.4 °F 70% 29.94 in 10.0 mi SE 10.4 mph 16.1 mph N/A   Overcast
3:36 PM 37.4 °F 29.3 °F 30.2 °F 75% 29.93 in 10.0 mi East 12.7 mph 17.3 mph N/A   Overcast
3:56 PM 37.4 °F 28.9 °F 26.6 °F 65% 29.92 in 10.0 mi SE 13.8 mph 21.9 mph N/A   Overcast
4:16 PM 37.4 °F 28.5 °F 28.4 °F 70% 29.91 in 10.0 mi SE 15.0 mph - N/A   Overcast
4:36 PM 37.4 °F 28.5 °F 28.4 °F 70% 29.90 in 10.0 mi SE 15.0 mph 21.9 mph N/A   Overcast
4:56 PM 37.4 °F 27.8 °F 28.4 °F 70% 29.89 in 10.0 mi SE 17.3 mph 21.9 mph N/A   Overcast
5:16 PM 37.4 °F 28.2 °F 28.4 °F 70% 29.89 in 10.0 mi ESE 16.1 mph 23.0 mph N/A   Overcast
5:36 PM 37.4 °F 29.8 °F 28.4 °F 70% 29.88 in 10.0 mi SE 11.5 mph - N/A   Overcast
5:56 PM 37.4 °F 28.5 °F 28.4 °F 70% 29.87 in 10.0 mi SE 15.0 mph 20.7 mph N/A   Mostly Cloudy
6:16 PM 37.4 °F 27.8 °F 28.4 °F 70% 29.87 in 10.0 mi SE 17.3 mph - N/A   Mostly Cloudy
6:36 PM 37.4 °F 28.5 °F 28.4 °F 70% 29.87 in 10.0 mi SE 15.0 mph - N/A   Mostly Cloudy
6:56 PM 37.4 °F 28.5 °F 28.4 °F 70% 29.86 in 10.0 mi SE 15.0 mph 21.9 mph N/A   Overcast
7:16 PM 37.4 °F 28.2 °F 30.2 °F 75% 29.85 in 10.0 mi SE 16.1 mph - N/A   Overcast
7:36 PM 37.4 °F 28.9 °F 30.2 °F 75% 29.85 in 10.0 mi SE 13.8 mph 17.3 mph N/A   Overcast
7:56 PM 37.4 °F 28.2 °F 28.4 °F 70% 29.84 in 10.0 mi SE 16.1 mph 20.7 mph N/A   Overcast
8:16 PM 37.4 °F 28.2 °F 28.4 °F 70% 29.83 in 10.0 mi SE 16.1 mph 23.0 mph N/A   Overcast
8:36 PM 37.4 °F 27.8 °F 28.4 °F 70% 29.83 in 10.0 mi SSE 17.3 mph 21.9 mph N/A   Overcast
8:56 PM 37.4 °F 27.5 °F 28.4 °F 70% 29.82 in 10.0 mi SE 18.4 mph 26.5 mph N/A   Unknown
9:16 PM 37.4 °F 27.8 °F 28.4 °F 70% 29.82 in 10.0 mi SE 17.3 mph 21.9 mph 0.01 in   Unknown
9:36 PM 37.4 °F 28.2 °F 30.2 °F 75% 29.82 in 10.0 mi SE 16.1 mph 21.9 mph 0.01 in   Overcast
9:56 PM 37.4 °F 28.5 °F 30.2 °F 75% 29.81 in 10.0 mi SE 15.0 mph 20.7 mph 0.01 in   Overcast
10:16 PM 37.4 °F 28.5 °F 30.2 °F 75% 29.81 in 10.0 mi SE 15.0 mph 23.0 mph 0.01 in   Overcast
10:36 PM 37.4 °F 28.5 °F 30.2 °F 75% 29.81 in 10.0 mi SE 15.0 mph - 0.01 in   Overcast
10:56 PM 37.4 °F 28.2 °F 30.2 °F 75% 29.80 in 10.0 mi SE 16.1 mph 20.7 mph 0.01 in   Overcast
11:16 PM 37.4 °F 29.3 °F 28.4 °F 70% 29.80 in 10.0 mi SE 12.7 mph - N/A   Overcast
11:36 PM 37.4 °F 28.2 °F 30.2 °F 75% 29.79 in 10.0 mi SE 16.1 mph - 0.01 in   Overcast
11:56 PM 37.4 °F 28.5 °F 30.2 °F 75% 29.79 in 10.0 mi ESE 15.0 mph 23.0 mph 0.01 in   Overcast